DW7516 Ajaltoun LB current weather conditions

sailwx.info

Wind from 345 at 2 knots gusting 2

Air temperature 20.6° C
Dewpoint 17.6° C

Last reported at 2020-Aug-03 23:06 UTC.
Time now 2020-Aug-04 00:00 UTC

Location: S 33°58' E 034°42'.
View on Google Maps.

See reports from other nearby stations

  
Tides and Currents Weather Stations Pressure Air Temp Water Temp Dewpoint Dewpoint Depression Visibility Wind Speed Wind Dir Waves Ship Positions
date/time (UTC)wind fromknots sea level pressurealtimeterstation pressurevisibilityair tempwater tempwave heightnotes
2020-Aug-03 23:06 345 2 gusting 2 20.6
2020-Aug-03 23:01 355 1 gusting 2 20.6
2020-Aug-03 22:46 022 2 gusting 2 20.0
2020-Aug-03 22:41 031 1 gusting 2 20.0
2020-Aug-03 22:36 20.0
2020-Aug-03 22:31 20.6
2020-Aug-03 22:16 045 1 gusting 1 20.6
2020-Aug-03 22:11 045 0 gusting 0 20.6
2020-Aug-03 22:06 043 0 gusting 0 20.6
2020-Aug-03 22:01 022 20.6
2020-Aug-03 21:46 271 0 gusting 0 21.1
2020-Aug-03 21:41 281 1 gusting 1 20.6
2020-Aug-03 21:36 292 1 gusting 1 20.6
2020-Aug-03 21:31 269 20.6
2020-Aug-03 21:16 292 20.6
2020-Aug-03 21:11 090 21.1
2020-Aug-03 21:06 090 21.1
2020-Aug-03 21:01 088 0 gusting 2 21.1
2020-Aug-03 20:46 027 1 gusting 1 21.1
2020-Aug-03 20:41 054 1 gusting 2 21.1
2020-Aug-03 20:36 090 21.7
2020-Aug-03 20:31 145 0 gusting 1 21.7
2020-Aug-03 20:16 225 21.7
2020-Aug-03 20:11 254 0 gusting 0 21.7
2020-Aug-03 20:06 327 0 gusting 1 21.7
2020-Aug-03 20:01 300 0 gusting 2 21.7
2020-Aug-03 19:46 315 0 gusting 1 21.1
2020-Aug-03 19:41 292 21.1
2020-Aug-03 19:36 248 21.1
2020-Aug-03 19:31 248 21.1
2020-Aug-03 19:16 252 0 gusting 1 21.7
2020-Aug-03 19:11 015 0 gusting 1 21.7
2020-Aug-03 19:06 090 0 gusting 0 21.7
2020-Aug-03 19:01 180 21.7
2020-Aug-03 18:46 015 0 gusting 1 21.7
2020-Aug-03 18:41 315 21.7
2020-Aug-03 18:36 292 0 gusting 1 21.7
2020-Aug-03 18:31 253 0 gusting 1 21.7
2020-Aug-03 18:16 068 21.7
2020-Aug-03 18:11 112 0 gusting 1 21.7
2020-Aug-03 18:06 119 0 gusting 1 21.7
2020-Aug-03 18:01 104 1 gusting 2 21.7
2020-Aug-03 17:46 112 1 gusting 1 21.7
2020-Aug-03 17:41 090 0 gusting 0 21.7
2020-Aug-03 17:36 134 0 gusting 0 21.7
2020-Aug-03 17:31 158 21.7
2020-Aug-03 17:16 158 0 gusting 0 22.2
2020-Aug-03 17:11 202 0 gusting 0 22.2
2020-Aug-03 17:06 225 0 gusting 0 22.2
2020-Aug-03 17:01 187 0 gusting 0 22.2
2020-Aug-03 16:46 135 0 gusting 1 22.2
2020-Aug-03 16:41 135 0 gusting 1 22.2
2020-Aug-03 16:36 133 0 gusting 0 22.2
2020-Aug-03 16:31 114 0 gusting 1 22.8
2020-Aug-03 16:16 194 1 gusting 2 22.8
2020-Aug-03 16:11 157 1 gusting 1 22.8
2020-Aug-03 16:06 173 1 gusting 1 22.8
2020-Aug-03 16:01 218 1 gusting 5 22.8
2020-Aug-03 15:46 178 2 gusting 4 23.3
2020-Aug-03 15:41 223 2 gusting 4 23.3
2020-Aug-03 15:36 202 0 gusting 4 23.3
2020-Aug-03 15:31 193 2 gusting 5 23.3
2020-Aug-03 15:16 254 2 gusting 5 23.3
2020-Aug-03 15:11 245 2 gusting 4 23.3
2020-Aug-03 15:06 262 2 gusting 4 23.3
2020-Aug-03 15:01 248 4 gusting 5 23.3
2020-Aug-03 14:46 244 2 gusting 5 23.3
2020-Aug-03 14:41 250 3 gusting 5 23.3
2020-Aug-03 14:36 249 4 gusting 6 23.3
2020-Aug-03 14:31 273 3 gusting 5 23.9
2020-Aug-03 14:16 187 1 gusting 4 23.9
2020-Aug-03 14:11 242 3 gusting 5 23.9
2020-Aug-03 14:06 281 3 gusting 5 24.4
2020-Aug-03 14:01 252 5 gusting 6 24.4
2020-Aug-03 13:46 245 3 gusting 5 24.4
2020-Aug-03 13:41 209 4 gusting 5 24.4
2020-Aug-03 13:36 243 2 gusting 5 25.0
2020-Aug-03 13:31 240 2 gusting 6 24.4
2020-Aug-03 13:16 241 3 gusting 4 24.4
2020-Aug-03 13:11 228 2 gusting 6 24.4
2020-Aug-03 13:06 247 4 gusting 5 24.4
2020-Aug-03 13:01 225 2 gusting 6 24.4
2020-Aug-03 12:46 231 2 gusting 4 24.4
2020-Aug-03 12:41 225 2 gusting 6 24.4
2020-Aug-03 12:36 229 4 gusting 6 24.4
2020-Aug-03 12:31 270 3 gusting 6 24.4
2020-Aug-03 12:16 277 3 gusting 6 25.0
2020-Aug-03 12:11 303 3 gusting 5 25.6
2020-Aug-03 12:06 229 4 gusting 6 25.6
2020-Aug-03 12:01 256 5 gusting 6 25.6
2020-Aug-03 11:46 262 4 gusting 6 25.6
2020-Aug-03 11:41 248 5 gusting 7 26.1
2020-Aug-03 11:36 227 5 gusting 6 26.1
2020-Aug-03 11:31 270 5 gusting 6 25.6
2020-Aug-03 11:16 248 2 gusting 7 25.6
2020-Aug-03 11:11 249 5 gusting 7 25.6
2020-Aug-03 11:06 242 5 gusting 7 26.1
2020-Aug-03 11:01 252 3 gusting 6 26.1
2020-Aug-03 10:46 218 5 gusting 6 25.6
2020-Aug-03 10:41 223 3 gusting 6 25.6
2020-Aug-03 10:36 268 5 gusting 6 25.6
2020-Aug-03 10:31 220 2 gusting 6 25.6
2020-Aug-03 10:16 197 3 gusting 5 25.6
2020-Aug-03 10:11 231 2 gusting 6 25.0
2020-Aug-03 10:06 225 3 gusting 5 25.0
2020-Aug-03 10:01 273 2 gusting 8 25.0
2020-Aug-03 09:46 243 3 gusting 8 24.4
2020-Aug-03 09:41 257 2 gusting 5 24.4
2020-Aug-03 09:36 243 3 gusting 5 24.4
2020-Aug-03 09:31 183 1 gusting 5 24.4
2020-Aug-03 09:16 186 1 gusting 4 24.4
2020-Aug-03 09:11 197 1 gusting 2 23.9
2020-Aug-03 09:06 219 3 gusting 5 23.9
2020-Aug-03 09:01 225 3 gusting 6 24.4
2020-Aug-03 08:46 257 6 gusting 7 24.4
2020-Aug-03 08:41 210 4 gusting 6 25.0
2020-Aug-03 08:36 223 3 gusting 6 24.4
2020-Aug-03 08:31 245 4 gusting 6 25.0
2020-Aug-03 08:16 256 3 gusting 6 24.4
2020-Aug-03 08:11 244 4 gusting 5 24.4
2020-Aug-03 08:06 249 5 gusting 6 25.0
2020-Aug-03 08:01 262 3 gusting 5 25.0
2020-Aug-03 07:46 262 3 gusting 6 25.0
2020-Aug-03 07:41 239 3 gusting 5 24.4
2020-Aug-03 07:36 245 1 gusting 4 24.4
2020-Aug-03 07:31 252 0 gusting 6 24.4
2020-Aug-03 07:16 293 3 gusting 6 24.4
2020-Aug-03 07:11 259 3 gusting 6 23.9
2020-Aug-03 07:06 210 1 gusting 5 23.9
2020-Aug-03 07:01 236 3 gusting 6 23.9
2020-Aug-03 06:46 296 2 gusting 4 23.9
2020-Aug-03 06:41 228 3 gusting 5 23.9
2020-Aug-03 06:36 225 3 gusting 4 23.9
2020-Aug-03 06:31 184 0 gusting 5 23.9
2020-Aug-03 06:16 265 4 gusting 5 23.9
2020-Aug-03 06:11 251 2 gusting 6 23.9
2020-Aug-03 06:06 270 4 gusting 5 23.3
2020-Aug-03 06:01 267 2 gusting 4 23.3
2020-Aug-03 05:46 145 2 gusting 4 23.3
2020-Aug-03 05:41 218 1 gusting 2 22.8
2020-Aug-03 05:36 202 2 gusting 4 22.8
2020-Aug-03 05:31 180 1 gusting 6 23.3
2020-Aug-03 05:16 166 2 gusting 4 25.0
2020-Aug-03 05:11 196 1 gusting 2 25.0
2020-Aug-03 05:06 240 1 gusting 1 25.0
2020-Aug-03 05:01 227 0 gusting 1 25.0
2020-Aug-03 04:46 158 24.4
2020-Aug-03 04:41 158 24.4
2020-Aug-03 04:36 135 24.4
2020-Aug-03 04:31 135 0 gusting 0 24.4
2020-Aug-03 04:16 202 0 gusting 2 23.9
2020-Aug-03 04:11 181 0 gusting 1 24.4
2020-Aug-03 04:06 202 23.9
2020-Aug-03 04:01 198 0 gusting 2 23.3
2020-Aug-03 03:46 312 0 gusting 1 22.8
2020-Aug-03 03:41 338 1 gusting 1 22.2
2020-Aug-03 03:36 316 0 gusting 0 22.2
2020-Aug-03 03:31 338 0 gusting 1 21.7
2020-Aug-03 03:16 21.7
2020-Aug-03 03:11 322 0 gusting 1 21.7
2020-Aug-03 03:06 21.7
2020-Aug-03 03:01 21.7
2020-Aug-03 02:46 332 0 gusting 0 21.7
2020-Aug-03 02:41 233 21.7
2020-Aug-03 02:36 112 0 gusting 0 21.7
2020-Aug-03 02:31 158 0 gusting 1 21.7
2020-Aug-03 02:16 21.7
2020-Aug-03 02:11 21.7
2020-Aug-03 02:06 21.7
2020-Aug-03 02:01 326 0 gusting 4 22.2
2020-Aug-03 01:46 354 2 gusting 4 23.3
2020-Aug-03 01:41 22.8
2020-Aug-03 01:36 22.8
2020-Aug-03 01:31 349 2 gusting 4 22.8
2020-Aug-03 01:16 022 1 gusting 2 23.3
2020-Aug-03 01:11 019 1 gusting 1 23.3
2020-Aug-03 01:06 055 1 gusting 1 22.8
2020-Aug-03 01:01 045 1 gusting 2 22.8
2020-Aug-03 00:46 006 3 gusting 4 22.8
2020-Aug-03 00:41 022 4 gusting 5 22.8
2020-Aug-03 00:36 045 5 gusting 6 22.8
2020-Aug-03 00:31 014 2 gusting 6 22.8
2020-Aug-03 00:16 22.8
2020-Aug-03 00:11 22.8
2020-Aug-03 00:06 22.8
2020-Aug-03 00:01 22.8
2020-Aug-02 23:46 22.8
2020-Aug-02 23:41 332 0 gusting 2 22.8
2020-Aug-02 23:36 326 1 gusting 4 22.8
2020-Aug-02 23:31 323 2 gusting 4 22.8
2020-Aug-02 23:16 334 2 gusting 4 22.2
2020-Aug-02 23:11 338 2 gusting 5 22.2
2020-Aug-02 23:06 342 2 gusting 4 22.2
2020-Aug-02 23:01 338 2 gusting 4 22.2
2020-Aug-02 22:46 21.7
2020-Aug-02 22:41 21.7
2020-Aug-02 22:36 21.1
2020-Aug-02 22:31 343 2 gusting 5 21.1
2020-Aug-02 22:16 022 0 gusting 1 20.6
2020-Aug-02 22:11 20.6
2020-Aug-02 22:06 022 0 gusting 1 20.6
2020-Aug-02 22:01 20.6
2020-Aug-02 21:46 220 21.1
2020-Aug-02 21:41 190 21.7
2020-Aug-02 21:36 162 22.2
2020-Aug-02 21:31 045 22.8
2020-Aug-02 21:16 022 0 gusting 0 23.3
2020-Aug-02 21:11 022 0 gusting 1 23.3
2020-Aug-02 21:06 022 0 gusting 1 23.3
2020-Aug-02 21:01 022 1 gusting 1 23.3
2020-Aug-02 20:46 022 1 gusting 1 22.8
2020-Aug-02 20:41 041 1 gusting 2 22.8
2020-Aug-02 20:36 022 2 gusting 2 22.8
2020-Aug-02 20:31 016 0 gusting 2 22.8
2020-Aug-02 20:16 22.8
2020-Aug-02 20:11 22.8
2020-Aug-02 20:06 22.8
2020-Aug-02 20:01 23.3
2020-Aug-02 19:46 045 1 gusting 2 22.8
2020-Aug-02 19:41 022 1 gusting 2 22.8
2020-Aug-02 19:36 004 1 gusting 1 22.2
2020-Aug-02 19:31 030 1 gusting 1 22.2
2020-Aug-02 19:16 338 0 gusting 2 22.2
2020-Aug-02 19:11 348 1 gusting 1 22.2
2020-Aug-02 19:06 338 0 gusting 1 22.2
2020-Aug-02 19:01 22.2
2020-Aug-02 18:46 338 0 gusting 1 22.2
2020-Aug-02 18:41 338 0 gusting 1 22.8
2020-Aug-02 18:36 351 2 gusting 2 22.8
2020-Aug-02 18:31 22.8
2020-Aug-02 18:16 351 1 gusting 2 22.2
2020-Aug-02 18:11 338 2 gusting 4 22.2
2020-Aug-02 18:06 22.2
2020-Aug-02 18:01 22.2
2020-Aug-02 17:46 22.2
2020-Aug-02 17:41 22.2
2020-Aug-02 17:36 004 0 gusting 1 22.8
2020-Aug-02 17:31 022 1 gusting 1 22.2
2020-Aug-02 17:16 22.8
2020-Aug-02 17:11 22.8
2020-Aug-02 17:06 22.8
2020-Aug-02 17:01 068 0 gusting 1 22.2
2020-Aug-02 16:46 112 0 gusting 0 22.8
2020-Aug-02 16:41 141 22.8
2020-Aug-02 16:36 180 22.8
2020-Aug-02 16:31 180 0 gusting 0 22.8
2020-Aug-02 16:16 180 23.3
2020-Aug-02 16:11 190 23.3
2020-Aug-02 16:06 162 23.3
2020-Aug-02 16:01 212 0 gusting 5 23.3
2020-Aug-02 15:46 212 4 gusting 5 24.4
2020-Aug-02 15:41 225 1 gusting 5 24.4
2020-Aug-02 15:36 248 2 gusting 6 24.4
2020-Aug-02 15:31 224 2 gusting 6 24.4
2020-Aug-02 15:16 245 5 gusting 6 25.0
2020-Aug-02 15:11 237 6 gusting 6 25.0
2020-Aug-02 15:06 269 7 gusting 10 25.0
2020-Aug-02 15:01 259 5 gusting 10 25.0
2020-Aug-02 14:46 238 6 gusting 7 25.6
2020-Aug-02 14:41 220 7 gusting 10 25.0
2020-Aug-02 14:36 260 5 gusting 6 25.0
2020-Aug-02 14:31 222 4 gusting 8 25.0
2020-Aug-02 14:16 257 2 gusting 6 25.0
2020-Aug-02 14:11 174 5 gusting 7 25.0
2020-Aug-02 14:06 202 8 gusting 10 25.0
2020-Aug-02 14:01 219 3 gusting 7 25.0
2020-Aug-02 13:46 266 6 gusting 8 25.0
2020-Aug-02 13:41 203 2 gusting 6 24.4
2020-Aug-02 13:36 236 6 gusting 11 24.4
2020-Aug-02 13:31 241 5 gusting 10 25.0
2020-Aug-02 13:16 259 6 gusting 11 24.4
2020-Aug-02 13:11 264 7 gusting 8 25.6
2020-Aug-02 13:06 238 5 gusting 7 25.6
2020-Aug-02 13:01 237 5 gusting 8 25.6
2020-Aug-02 12:46 292 2 gusting 6 24.4
2020-Aug-02 12:41 253 4 gusting 8 24.4
2020-Aug-02 12:36 226 6 gusting 7 25.0
2020-Aug-02 12:31 271 6 gusting 12 25.0
2020-Aug-02 12:16 233 4 gusting 6 25.6
2020-Aug-02 12:11 248 5 gusting 11 25.6
2020-Aug-02 12:06 244 7 gusting 14 25.6
2020-Aug-02 12:01 244 6 gusting 7 25.6
2020-Aug-02 11:46 244 2 gusting 6 25.6
2020-Aug-02 11:41 263 4 gusting 6 25.6
2020-Aug-02 11:36 249 5 gusting 6 25.6
2020-Aug-02 11:31 252 5 gusting 6 25.6
2020-Aug-02 11:16 260 2 gusting 6 25.6
2020-Aug-02 11:11 233 5 gusting 7 25.6
2020-Aug-02 11:06 202 5 gusting 7 25.0
2020-Aug-02 11:01 248 5 gusting 6 25.0
2020-Aug-02 10:46 237 4 gusting 7 25.6
2020-Aug-02 10:41 225 5 gusting 5 25.6
2020-Aug-02 10:36 273 4 gusting 6 25.6
2020-Aug-02 10:31 263 6 gusting 8 25.6
2020-Aug-02 10:16 270 6 gusting 6 25.6
2020-Aug-02 10:11 251 6 gusting 8 25.6
2020-Aug-02 10:06 258 5 gusting 8 26.1
2020-Aug-02 10:01 225 5 gusting 7 26.1
2020-Aug-02 09:46 253 4 gusting 6 26.1
2020-Aug-02 09:41 251 4 gusting 5 26.1
2020-Aug-02 09:36 181 3 gusting 6 25.6
2020-Aug-02 09:31 225 5 gusting 6 25.6
2020-Aug-02 09:16 194 5 gusting 6 25.0
2020-Aug-02 09:11 206 6 gusting 8 25.0
2020-Aug-02 09:06 266 5 gusting 6 25.0
2020-Aug-02 09:01 302 2 gusting 8 25.0
2020-Aug-02 08:46 272 5 gusting 6 25.0
2020-Aug-02 08:41 273 5 gusting 6 25.0
2020-Aug-02 08:36 283 6 gusting 6 25.0
2020-Aug-02 08:31 210 5 gusting 7 25.0
2020-Aug-02 08:16 233 4 gusting 6 25.6
2020-Aug-02 08:11 239 5 gusting 5 25.0
2020-Aug-02 08:06 248 3 gusting 6 25.0
2020-Aug-02 08:01 244 4 gusting 6 25.6
2020-Aug-02 07:46 208 2 gusting 4 25.0
2020-Aug-02 07:41 272 4 gusting 6 25.0
2020-Aug-02 07:36 206 4 gusting 6 24.4
2020-Aug-02 07:31 242 4 gusting 6 24.4
2020-Aug-02 07:16 158 3 gusting 6 24.4
2020-Aug-02 07:11 223 3 gusting 6 23.9
2020-Aug-02 07:06 176 2 gusting 5 23.9
2020-Aug-02 07:01 206 4 gusting 5 23.9
2020-Aug-02 06:46 151 1 gusting 5 23.9
2020-Aug-02 06:41 188 3 gusting 6 23.9
2020-Aug-02 06:36 187 2 gusting 5 23.9
2020-Aug-02 06:31 183 2 gusting 5 23.3
2020-Aug-02 06:16 179 1 gusting 4 23.3
2020-Aug-02 06:11 180 2 gusting 5 23.3
2020-Aug-02 06:06 135 2 gusting 2 23.3
2020-Aug-02 06:01 190 2 gusting 5 22.8
2020-Aug-02 05:46 172 2 gusting 4 23.3
2020-Aug-02 05:41 197 2 gusting 4 23.9
2020-Aug-02 05:36 160 1 gusting 2 25.0
2020-Aug-02 05:31 195 1 gusting 2 25.0
2020-Aug-02 05:16 185 0 gusting 1 25.0
2020-Aug-02 05:11 188 0 gusting 0 25.0
2020-Aug-02 05:06 184 0 gusting 1 25.0
2020-Aug-02 05:01 166 25.0
2020-Aug-02 04:46 202 25.6
2020-Aug-02 04:41 202 0 gusting 0 25.6
2020-Aug-02 04:36 184 26.1
2020-Aug-02 04:31 180 25.6
2020-Aug-02 04:16 158 0 gusting 1 25.6
2020-Aug-02 04:11 226 25.6
2020-Aug-02 04:06 292 25.0
2020-Aug-02 04:01 315 24.4
2020-Aug-02 03:46 338 2 gusting 2 23.3
2020-Aug-02 03:41 356 1 gusting 1 23.3
2020-Aug-02 03:36 338 0 gusting 1 22.8
2020-Aug-02 03:31 338 0 gusting 2 22.8
2020-Aug-02 03:16 22.2
2020-Aug-02 03:11 344 1 gusting 1 22.2
2020-Aug-02 03:06 338 1 gusting 1 22.2
2020-Aug-02 03:01 338 1 gusting 1 22.2
2020-Aug-02 02:46 334 1 gusting 1 22.2
2020-Aug-02 02:41 315 1 gusting 1 22.8
2020-Aug-02 02:36 319 1 gusting 1 22.2
2020-Aug-02 02:31 350 0 gusting 1 22.2
2020-Aug-02 02:16 332 1 gusting 1 23.3
2020-Aug-02 02:11 268 1 gusting 1 23.3
2020-Aug-02 02:06 336 0 gusting 1 23.3
2020-Aug-02 02:01 23.3
2020-Aug-02 01:46 356 2 gusting 2 23.3
2020-Aug-02 01:41 23.3
2020-Aug-02 01:36 351 1 gusting 1 23.3
2020-Aug-02 01:31 338 0 gusting 2 23.3
2020-Aug-02 01:06 23.9
2020-Aug-02 01:01 306 0 gusting 1 23.9
2020-Aug-02 00:46 022 2 gusting 4 24.4
2020-Aug-02 00:41 022 4 gusting 4 23.9
2020-Aug-02 00:36 012 2 gusting 2 23.9
2020-Aug-02 00:31 022 2 gusting 4 23.9
2020-Aug-02 00:16 013 2 gusting 4 23.9
2020-Aug-02 00:11 022 2 gusting 2 23.9
2020-Aug-02 00:06 022 1 gusting 1 23.9
2020-Aug-02 00:01 037 1 gusting 4 23.9